Time,TemperatureF,DewpointF,PressureIn,WindDirection,WindDirectionDegrees,WindSpeedMPH,WindSpeedGustMPH,Humidity,HourlyPrecipIn,Conditions,Clouds,dailyrainin,SoftwareType,DateUTC
2013-06-22 00:01:00,80.5,68.5,29.90,SE,140,0.1,1.2,67,0.00,CLR,,0.00,WeatherDisplay:10.37,2013-06-22 05:01:00,
2013-06-22 00:06:00,80.6,68.6,29.90,ESE,110,0.8,1.2,67,0.00,CLR,,0.00,WeatherDisplay:10.37,2013-06-22 05:06:00,
2013-06-22 00:11:00,80.6,68.6,29.90,East,101,0.1,1.2,67,0.00,CLR,,0.00,WeatherDisplay:10.37,2013-06-22 05:11:00,
2013-06-22 00:16:00,80.5,68.5,29.90,SE,136,0.0,1.2,67,0.00,CLR,,0.00,WeatherDisplay:10.37,2013-06-22 05:16:00,
2013-06-22 00:21:00,80.4,68.4,29.90,SSE,167,0.0,0.0,67,0.00,CLR,,0.00,WeatherDisplay:10.37,2013-06-22 05:21:00,
2013-06-22 00:26:00,80.2,68.2,29.90,ESE,120,0.4,1.2,67,0.00,CLR,,0.00,WeatherDisplay:10.37,2013-06-22 05:26:00,
2013-06-22 00:31:00,80.1,68.6,29.89,ESE,103,0.3,1.2,68,0.00,CLR,,0.00,WeatherDisplay:10.37,2013-06-22 05:31:00,
2013-06-22 00:36:00,79.9,68.4,29.90,SE,129,1.2,2.3,68,0.00,CLR,,0.00,WeatherDisplay:10.37,2013-06-22 05:36:00,
2013-06-22 00:41:00,79.9,68.4,29.89,South,185,1.0,2.3,68,0.00,CLR,,0.00,WeatherDisplay:10.37,2013-06-22 05:41:00,
2013-06-22 00:46:00,79.8,68.7,29.90,SSE,154,0.0,1.2,69,0.00,CLR,,0.00,WeatherDisplay:10.37,2013-06-22 05:46:00,
2013-06-22 00:51:00,79.7,68.6,29.90,SE,124,0.5,1.2,69,0.00,CLR,,0.00,WeatherDisplay:10.37,2013-06-22 05:51:00,
2013-06-22 00:56:00,79.6,68.5,29.90,ESE,117,0.0,1.2,69,0.00,CLR,,0.00,WeatherDisplay:10.37,2013-06-22 05:56:00,
2013-06-22 01:01:00,79.5,68.4,29.90,SSE,163,0.1,2.3,69,0.00,CLR,,0.00,WeatherDisplay:10.37,2013-06-22 06:01:00,
2013-06-22 01:06:00,79.5,68.9,29.90,SE,131,0.5,1.2,70,0.00,CLR,,0.00,WeatherDisplay:10.37,2013-06-22 06:06:00,
2013-06-22 01:11:00,79.5,68.9,29.90,SSE,164,0.2,1.2,70,0.00,CLR,,0.00,WeatherDisplay:10.37,2013-06-22 06:11:00,
2013-06-22 01:16:00,79.4,69.2,29.89,SSE,160,0.1,1.2,71,0.00,CLR,,0.00,WeatherDisplay:10.37,2013-06-22 06:16:00,
2013-06-22 01:21:00,79.2,69.0,29.89,ESE,119,0.0,2.0,71,0.00,CLR,,0.00,WeatherDisplay:10.37,2013-06-22 06:21:00,
2013-06-22 01:26:00,79.0,68.8,29.89,SE,136,1.2,3.5,71,0.00,CLR,,0.00,WeatherDisplay:10.37,2013-06-22 06:26:00,
2013-06-22 01:31:00,79.1,68.9,29.89,SE,124,0.2,2.3,71,0.00,CLR,,0.00,WeatherDisplay:10.37,2013-06-22 06:31:00,
2013-06-22 01:36:00,79.0,69.2,29.89,SSE,150,0.0,1.2,72,0.00,CLR,,0.00,WeatherDisplay:10.37,2013-06-22 06:36:00,
2013-06-22 01:41:00,78.8,69.0,29.89,SSE,148,0.1,1.2,72,0.00,CLR,,0.00,WeatherDisplay:10.37,2013-06-22 06:41:00,
2013-06-22 01:46:00,78.7,68.9,29.89,SE,136,0.2,1.2,72,0.00,CLR,,0.00,WeatherDisplay:10.37,2013-06-22 06:46:00,
2013-06-22 01:51:00,78.6,69.2,29.88,SSW,207,0.0,0.0,73,0.00,CLR,,0.00,WeatherDisplay:10.37,2013-06-22 06:51:00,
2013-06-22 01:56:00,78.4,69.0,29.88,ESE,121,0.1,0.0,73,0.00,CLR,,0.00,WeatherDisplay:10.37,2013-06-22 06:56:00,
2013-06-22 02:01:00,78.2,68.8,29.88,South,179,0.7,2.3,73,0.00,CLR,,0.00,WeatherDisplay:10.37,2013-06-22 07:01:00,
2013-06-22 02:06:00,78.2,69.2,29.88,SSE,165,0.0,0.0,74,0.00,CLR,,0.00,WeatherDisplay:10.37,2013-06-22 07:06:00,
2013-06-22 02:11:00,78.0,69.0,29.88,North,11,0.5,2.3,74,0.00,CLR,,0.00,WeatherDisplay:10.37,2013-06-22 07:11:00,
2013-06-22 02:16:00,78.0,69.0,29.88,SSW,194,1.4,3.5,74,0.00,CLR,,0.00,WeatherDisplay:10.37,2013-06-22 07:16:00,
2013-06-22 02:21:00,77.9,68.9,29.88,SW,215,0.2,1.2,74,0.00,CLR,,0.00,WeatherDisplay:10.37,2013-06-22 07:21:00,
2013-06-22 02:26:00,77.9,68.9,29.87,WSW,242,0.1,1.2,74,0.00,CLR,,0.00,WeatherDisplay:10.37,2013-06-22 07:26:00,
2013-06-22 02:31:00,77.7,68.7,29.87,South,179,1.0,1.2,74,0.00,CLR,,0.00,WeatherDisplay:10.37,2013-06-22 07:31:00,
2013-06-22 02:36:00,77.7,68.7,29.86,SSW,205,0.5,1.2,74,0.00,CLR,,0.00,WeatherDisplay:10.37,2013-06-22 07:36:00,
2013-06-22 02:41:00,77.7,68.7,29.86,South,176,0.4,2.3,74,0.00,CLR,,0.00,WeatherDisplay:10.37,2013-06-22 07:41:00,
2013-06-22 02:46:00,77.7,68.7,29.87,SE,136,0.7,2.3,74,0.00,CLR,,0.00,WeatherDisplay:10.37,2013-06-22 07:46:00,
2013-06-22 02:51:00,77.6,68.7,29.86,SE,144,0.6,1.2,74,0.00,CLR,,0.00,WeatherDisplay:10.37,2013-06-22 07:51:00,
2013-06-22 02:56:00,77.5,68.9,29.87,SE,124,0.1,1.2,75,0.00,CLR,,0.00,WeatherDisplay:10.37,2013-06-22 07:56:00,
2013-06-22 03:01:00,77.4,68.9,29.87,ESE,113,0.0,0.0,75,0.00,CLR,,0.00,WeatherDisplay:10.37,2013-06-22 08:01:00,
2013-06-22 03:06:00,77.3,68.8,29.88,ESE,120,0.0,0.0,75,0.00,CLR,,0.00,WeatherDisplay:10.37,2013-06-22 08:06:00,
2013-06-22 03:11:00,77.2,68.7,29.89,ESE,120,0.0,0.0,75,0.00,CLR,,0.00,WeatherDisplay:10.37,2013-06-22 08:11:00,
2013-06-22 03:16:00,77.0,68.9,29.89,ESE,120,0.0,0.0,76,0.00,CLR,,0.00,WeatherDisplay:10.37,2013-06-22 08:16:00,
2013-06-22 03:21:00,76.8,68.7,29.89,SE,131,0.1,1.2,76,0.00,CLR,,0.00,WeatherDisplay:10.37,2013-06-22 08:21:00,
2013-06-22 03:26:00,76.6,68.5,29.90,ESE,123,0.3,1.2,76,0.00,CLR,,0.00,WeatherDisplay:10.37,2013-06-22 08:26:00,
2013-06-22 03:31:00,76.5,68.7,29.90,ESE,123,0.0,0.0,77,0.00,CLR,,0.00,WeatherDisplay:10.37,2013-06-22 08:31:00,
2013-06-22 03:36:00,76.3,68.6,29.90,SE,124,0.2,1.2,77,0.00,CLR,,0.00,WeatherDisplay:10.37,2013-06-22 08:36:00,
2013-06-22 03:41:00,76.2,68.5,29.90,SE,146,0.1,1.2,77,0.00,CLR,,0.00,WeatherDisplay:10.37,2013-06-22 08:41:00,
2013-06-22 03:46:00,76.2,68.5,29.90,ESE,120,0.1,1.2,77,0.00,CLR,,0.00,WeatherDisplay:10.37,2013-06-22 08:46:00,
2013-06-22 03:51:00,76.1,68.4,29.90,SE,127,0.2,1.2,77,0.00,CLR,,0.00,WeatherDisplay:10.37,2013-06-22 08:51:00,
2013-06-22 03:56:00,76.1,68.4,29.90,SW,222,0.6,2.3,77,0.00,CLR,,0.00,WeatherDisplay:10.37,2013-06-22 08:56:00,
2013-06-22 04:01:00,76.1,68.7,29.90,SSE,147,0.0,0.0,78,0.00,CLR,,0.00,WeatherDisplay:10.37,2013-06-22 09:01:00,
2013-06-22 04:06:00,76.0,68.6,29.90,WNW,297,0.0,1.0,78,0.00,CLR,,0.00,WeatherDisplay:10.37,2013-06-22 09:06:00,
2013-06-22 04:11:00,75.8,68.4,29.90,WNW,297,0.1,1.2,78,0.00,CLR,,0.00,WeatherDisplay:10.37,2013-06-22 09:11:00,
2013-06-22 04:16:00,75.7,68.7,29.90,ENE,76,0.1,0.0,79,0.00,CLR,,0.00,WeatherDisplay:10.37,2013-06-22 09:16:00,
2013-06-22 04:21:00,75.6,68.6,29.90,ESE,122,0.6,2.3,79,0.00,CLR,,0.00,WeatherDisplay:10.37,2013-06-22 09:21:00,
2013-06-22 04:26:00,75.5,68.5,29.90,ESE,121,0.0,0.0,79,0.00,CLR,,0.00,WeatherDisplay:10.37,2013-06-22 09:26:00,
2013-06-22 04:31:00,75.3,68.3,29.89,ESE,121,0.0,0.0,79,0.00,CLR,,0.00,WeatherDisplay:10.37,2013-06-22 09:31:00,
2013-06-22 04:36:00,75.1,68.5,29.89,SSW,205,0.0,0.0,80,0.00,CLR,,0.00,WeatherDisplay:10.37,2013-06-22 09:36:00,
2013-06-22 04:41:00,75.0,68.4,29.89,SSE,165,0.0,0.0,80,0.00,CLR,,0.00,WeatherDisplay:10.37,2013-06-22 09:41:00,
2013-06-22 04:46:00,74.9,68.7,29.89,South,174,0.5,2.3,81,0.00,CLR,,0.00,WeatherDisplay:10.37,2013-06-22 09:46:00,
2013-06-22 04:51:00,74.8,68.6,29.89,ESE,119,0.0,0.0,81,0.00,CLR,,0.00,WeatherDisplay:10.37,2013-06-22 09:51:00,
2013-06-22 04:56:00,74.6,68.4,29.88,ESE,119,0.0,0.0,81,0.00,CLR,,0.00,WeatherDisplay:10.37,2013-06-22 09:56:00,
2013-06-22 05:01:00,74.5,68.6,29.88,SSE,147,0.0,0.0,82,0.00,CLR,,0.00,WeatherDisplay:10.37,2013-06-22 10:01:00,
2013-06-22 05:06:00,74.5,68.6,29.88,SE,134,0.0,1.2,82,0.00,CLR,,0.00,WeatherDisplay:10.37,2013-06-22 10:06:00,
2013-06-22 05:11:00,74.5,68.6,29.88,ESE,119,0.2,1.2,82,0.00,CLR,,0.00,WeatherDisplay:10.37,2013-06-22 10:11:00,
2013-06-22 05:16:00,74.5,68.6,29.88,SSE,149,0.0,0.0,82,0.00,CLR,,0.00,WeatherDisplay:10.37,2013-06-22 10:16:00,
2013-06-22 05:21:00,74.5,68.6,29.88,SE,125,0.1,1.2,82,0.00,CLR,,0.00,WeatherDisplay:10.37,2013-06-22 10:21:00,
2013-06-22 05:26:00,74.5,68.6,29.87,SE,143,0.0,1.2,82,0.00,CLR,,0.00,WeatherDisplay:10.37,2013-06-22 10:26:00,
2013-06-22 05:31:00,74.5,68.6,29.87,WSW,256,0.0,1.2,82,0.00,CLR,,0.00,WeatherDisplay:10.37,2013-06-22 10:31:00,
2013-06-22 05:36:00,74.5,68.3,29.87,North,1,0.3,1.2,81,0.00,CLR,,0.00,WeatherDisplay:10.37,2013-06-22 10:36:00,
2013-06-22 05:41:00,74.5,68.6,29.88,SW,217,0.0,0.0,82,0.00,CLR,,0.00,WeatherDisplay:10.37,2013-06-22 10:41:00,
2013-06-22 05:46:00,74.5,68.6,29.88,SE,126,0.5,0.0,82,0.00,CLR,,0.00,WeatherDisplay:10.37,2013-06-22 10:46:00,
2013-06-22 05:51:00,74.6,68.4,29.88,East,96,0.4,2.3,81,0.00,CLR,,0.00,WeatherDisplay:10.37,2013-06-22 10:51:00,
2013-06-22 05:56:00,74.6,68.4,29.88,SSW,206,0.0,0.0,81,0.00,CLR,,0.00,WeatherDisplay:10.37,2013-06-22 10:56:00,
2013-06-22 06:02:00,74.6,68.4,29.88,SE,128,0.4,1.2,81,0.00,CLR,,0.00,WeatherDisplay:10.37,2013-06-22 11:02:00,
2013-06-22 06:07:00,74.7,68.5,29.88,SE,139,0.6,2.3,81,0.00,CLR,,0.00,WeatherDisplay:10.37,2013-06-22 11:07:00,
2013-06-22 06:12:00,74.8,68.6,29.88,SSW,210,0.0,0.0,81,0.00,CLR,,0.00,WeatherDisplay:10.37,2013-06-22 11:12:00,
2013-06-22 06:17:00,74.8,68.6,29.89,SSW,200,0.0,1.2,81,0.00,CLR,,0.00,WeatherDisplay:10.37,2013-06-22 11:17:00,
2013-06-22 06:22:00,74.8,68.6,29.89,SSW,200,0.0,0.0,81,0.00,CLR,,0.00,WeatherDisplay:10.37,2013-06-22 11:22:00,
2013-06-22 06:27:00,74.9,68.7,29.89,West,266,0.0,0.0,81,0.00,CLR,,0.00,WeatherDisplay:10.37,2013-06-22 11:27:00,
2013-06-22 06:32:00,75.0,68.8,29.89,SE,135,0.1,1.2,81,0.00,CLR,,0.00,WeatherDisplay:10.37,2013-06-22 11:32:00,
2013-06-22 06:37:00,75.0,68.8,29.89,South,174,0.0,0.0,81,0.00,CLR,,0.00,WeatherDisplay:10.37,2013-06-22 11:37:00,
2013-06-22 06:42:00,75.1,68.9,29.89,SW,217,0.0,2.3,81,0.00,CLR,,0.00,WeatherDisplay:10.37,2013-06-22 11:42:00,
2013-06-22 06:47:00,75.2,69.0,29.89,SW,228,0.4,2.3,81,0.00,CLR,,0.00,WeatherDisplay:10.37,2013-06-22 11:47:00,
2013-06-22 06:52:00,75.2,69.0,29.89,SW,214,0.4,1.2,81,0.00,CLR,,0.00,WeatherDisplay:10.37,2013-06-22 11:52:00,
2013-06-22 06:57:00,75.3,69.1,29.89,SW,222,0.6,2.0,81,0.00,CLR,,0.00,WeatherDisplay:10.37,2013-06-22 11:57:00,
2013-06-22 07:02:00,75.4,68.8,29.89,SW,224,1.4,3.5,80,0.00,CLR,,0.00,WeatherDisplay:10.37,2013-06-22 12:02:00,
2013-06-22 07:07:00,75.7,69.1,29.89,South,187,0.1,2.3,80,0.00,CLR,,0.00,WeatherDisplay:10.37,2013-06-22 12:07:00,
2013-06-22 07:12:00,75.9,69.3,29.89,WSW,246,0.5,2.0,80,0.00,CLR,,0.00,WeatherDisplay:10.37,2013-06-22 12:12:00,
2013-06-22 07:17:00,76.3,69.3,29.90,WSW,238,1.2,2.3,79,0.00,CLR,,0.00,WeatherDisplay:10.37,2013-06-22 12:17:00,
2013-06-22 07:22:00,76.7,69.3,29.89,SW,214,0.8,3.5,78,0.00,CLR,,0.00,WeatherDisplay:10.37,2013-06-22 12:22:00,
2013-06-22 07:27:00,77.1,69.7,29.89,WSW,241,1.0,2.0,78,0.00,CLR,,0.00,WeatherDisplay:10.37,2013-06-22 12:27:00,
2013-06-22 07:32:00,77.3,69.5,29.89,SW,218,1.2,2.3,77,0.00,CLR,,0.00,WeatherDisplay:10.37,2013-06-22 12:32:00,
2013-06-22 07:37:00,77.4,69.6,29.89,WSW,240,0.5,2.3,77,0.00,CLR,,0.00,WeatherDisplay:10.37,2013-06-22 12:37:00,
2013-06-22 07:42:00,77.6,69.4,29.89,SSE,152,1.2,2.3,76,0.00,CLR,,0.00,WeatherDisplay:10.37,2013-06-22 12:42:00,
2013-06-22 07:47:00,77.9,69.3,29.89,ESE,102,1.5,2.3,75,0.00,CLR,,0.00,WeatherDisplay:10.37,2013-06-22 12:47:00,
2013-06-22 07:52:00,77.9,69.3,29.89,SE,141,0.2,1.2,75,0.00,CLR,,0.00,WeatherDisplay:10.37,2013-06-22 12:52:00,
2013-06-22 07:57:00,77.9,69.3,29.89,WSW,251,1.3,3.5,75,0.00,CLR,,0.00,WeatherDisplay:10.37,2013-06-22 12:57:00,
2013-06-22 08:02:00,77.9,69.3,29.89,WSW,249,0.8,2.3,75,0.00,CLR,,0.00,WeatherDisplay:10.37,2013-06-22 13:02:00,
2013-06-22 08:07:00,78.0,69.4,29.89,SE,146,0.4,2.3,75,0.00,CLR,,0.00,WeatherDisplay:10.37,2013-06-22 13:07:00,
2013-06-22 08:12:00,78.1,69.5,29.89,South,182,0.8,3.5,75,0.00,CLR,,0.00,WeatherDisplay:10.37,2013-06-22 13:12:00,
2013-06-22 08:17:00,78.3,69.3,29.90,SW,225,2.3,3.5,74,0.00,CLR,,0.00,WeatherDisplay:10.37,2013-06-22 13:17:00,
2013-06-22 08:22:00,78.4,69.8,29.90,ESE,121,0.4,2.3,75,0.00,CLR,,0.00,WeatherDisplay:10.37,2013-06-22 13:22:00,
2013-06-22 08:27:00,78.4,69.8,29.90,ESE,120,1.0,3.5,75,0.00,CLR,,0.00,WeatherDisplay:10.37,2013-06-22 13:27:00,
2013-06-22 08:32:00,78.5,69.9,29.90,WSW,243,1.7,3.5,75,0.00,CLR,,0.00,WeatherDisplay:10.37,2013-06-22 13:32:00,
2013-06-22 08:37:00,78.5,69.5,29.90,East,99,0.2,2.0,74,0.00,CLR,,0.00,WeatherDisplay:10.37,2013-06-22 13:37:00,
2013-06-22 08:42:00,78.7,69.7,29.90,WSW,255,0.4,2.3,74,0.00,CLR,,0.00,WeatherDisplay:10.37,2013-06-22 13:42:00,
2013-06-22 08:47:00,79.2,70.6,29.90,SW,233,0.1,1.2,75,0.00,CLR,,0.00,WeatherDisplay:10.37,2013-06-22 13:47:00,
2013-06-22 08:52:00,79.6,70.2,29.90,SW,230,0.6,2.3,73,0.00,CLR,,0.00,WeatherDisplay:10.37,2013-06-22 13:52:00,
2013-06-22 08:57:00,80.0,70.6,29.90,North,359,0.6,1.2,73,0.00,CLR,,0.00,WeatherDisplay:10.37,2013-06-22 13:57:00,
2013-06-22 09:02:00,80.3,70.0,29.90,South,184,1.2,3.5,71,0.00,CLR,,0.00,WeatherDisplay:10.37,2013-06-22 14:02:00,
2013-06-22 09:07:00,80.7,70.0,29.90,SW,231,2.5,3.5,70,0.00,CLR,,0.00,WeatherDisplay:10.37,2013-06-22 14:07:00,
2013-06-22 09:12:00,80.9,70.6,29.90,SSE,160,0.3,3.5,71,0.00,CLR,,0.00,WeatherDisplay:10.37,2013-06-22 14:12:00,
2013-06-22 09:17:00,81.2,70.5,29.90,SW,219,1.6,3.5,70,0.00,CLR,,0.00,WeatherDisplay:10.37,2013-06-22 14:17:00,
2013-06-22 09:22:00,81.4,70.2,29.90,South,187,2.6,3.5,69,0.00,CLR,,0.00,WeatherDisplay:10.37,2013-06-22 14:22:00,
2013-06-22 09:27:00,81.6,70.4,29.90,SSE,164,1.3,5.0,69,0.00,CLR,,0.00,WeatherDisplay:10.37,2013-06-22 14:27:00,
2013-06-22 09:32:00,81.8,69.8,29.90,SSW,212,1.6,4.6,67,0.00,CLR,,0.00,WeatherDisplay:10.37,2013-06-22 14:32:00,
2013-06-22 09:37:00,82.0,70.0,29.90,WSW,248,1.0,2.0,67,0.00,CLR,,0.00,WeatherDisplay:10.37,2013-06-22 14:37:00,
2013-06-22 09:42:00,82.3,70.2,29.90,SSE,163,1.1,2.3,67,0.00,CLR,,0.00,WeatherDisplay:10.37,2013-06-22 14:42:00,
2013-06-22 09:47:00,82.6,70.5,29.90,South,169,2.9,3.5,67,0.00,CLR,,0.00,WeatherDisplay:10.37,2013-06-22 14:47:00,
2013-06-22 09:52:00,82.9,70.8,29.90,SSW,207,0.6,2.3,67,0.00,CLR,,0.00,WeatherDisplay:10.37,2013-06-22 14:52:00,
2013-06-22 09:57:00,83.4,71.7,29.90,SE,136,0.8,3.5,68,0.00,CLR,,0.00,WeatherDisplay:10.37,2013-06-22 14:57:00,
2013-06-22 10:02:00,83.8,71.7,29.89,South,169,0.7,1.2,67,0.00,CLR,,0.00,WeatherDisplay:10.37,2013-06-22 15:02:00,
2013-06-22 10:07:00,84.1,71.1,29.89,WSW,247,1.1,3.5,65,0.00,CLR,,0.00,WeatherDisplay:10.37,2013-06-22 15:07:00,
2013-06-22 10:12:00,84.4,70.4,29.89,West,263,0.6,1.2,63,0.00,CLR,,0.00,WeatherDisplay:10.37,2013-06-22 15:12:00,
2013-06-22 10:17:00,84.7,70.2,29.89,SW,236,2.2,5.8,62,0.00,CLR,,0.00,WeatherDisplay:10.37,2013-06-22 15:17:00,
2013-06-22 10:22:00,85.1,71.1,29.89,South,180,1.3,3.5,63,0.00,CLR,,0.00,WeatherDisplay:10.37,2013-06-22 15:22:00,
2013-06-22 10:27:00,85.5,71.0,29.89,SW,224,1.9,4.6,62,0.00,CLR,,0.00,WeatherDisplay:10.37,2013-06-22 15:27:00,
2013-06-22 10:32:00,85.7,70.7,29.90,SW,217,1.2,2.3,61,0.00,CLR,,0.00,WeatherDisplay:10.37,2013-06-22 15:32:00,
2013-06-22 10:37:00,86.2,70.7,29.90,South,177,0.5,2.3,60,0.00,CLR,,0.00,WeatherDisplay:10.37,2013-06-22 15:37:00,
2013-06-22 10:42:00,86.5,70.5,29.90,NW,307,2.2,4.6,59,0.00,CLR,,0.00,WeatherDisplay:10.37,2013-06-22 15:42:00,
2013-06-22 10:47:00,86.7,71.2,29.90,NE,39,2.0,4.6,60,0.00,CLR,,0.00,WeatherDisplay:10.37,2013-06-22 15:47:00,
2013-06-22 10:52:00,87.1,71.5,29.91,ESE,122,0.6,3.5,60,0.00,CLR,,0.00,WeatherDisplay:10.37,2013-06-22 15:52:00,
2013-06-22 10:57:00,87.4,70.8,29.91,SSE,154,1.8,5.8,58,0.00,CLR,,0.00,WeatherDisplay:10.37,2013-06-22 15:57:00,
2013-06-22 11:02:00,87.8,71.7,29.91,East,94,0.6,1.2,59,0.00,CLR,,0.00,WeatherDisplay:10.37,2013-06-22 16:02:00,
2013-06-22 11:07:00,88.2,70.5,29.91,WSW,237,2.0,3.5,56,0.00,CLR,,0.00,WeatherDisplay:10.37,2013-06-22 16:07:00,
2013-06-22 11:12:00,88.1,70.9,29.91,SSW,209,2.1,3.5,57,0.00,CLR,,0.00,WeatherDisplay:10.37,2013-06-22 16:12:00,
2013-06-22 11:17:00,88.4,70.7,29.91,SW,229,0.1,1.2,56,0.00,CLR,,0.00,WeatherDisplay:10.37,2013-06-22 16:17:00,
2013-06-22 11:22:00,89.0,71.8,29.91,East,93,1.5,3.5,57,0.00,CLR,,0.00,WeatherDisplay:10.37,2013-06-22 16:22:00,
2013-06-22 11:27:00,88.8,71.1,29.92,ESE,108,0.6,2.3,56,0.00,CLR,,0.00,WeatherDisplay:10.37,2013-06-22 16:27:00,
2013-06-22 11:32:00,89.0,70.7,29.92,WSW,243,1.0,2.3,55,0.00,CLR,,0.00,WeatherDisplay:10.37,2013-06-22 16:32:00,
2013-06-22 11:37:00,89.2,71.5,29.93,SSE,167,1.2,3.5,56,0.00,CLR,,0.00,WeatherDisplay:10.37,2013-06-22 16:37:00,
2013-06-22 11:42:00,89.1,70.8,29.93,WSW,239,1.4,3.5,55,0.00,CLR,,0.00,WeatherDisplay:10.37,2013-06-22 16:42:00,
2013-06-22 11:47:00,89.3,71.0,29.93,ENE,60,1.5,2.3,55,0.00,CLR,,0.00,WeatherDisplay:10.37,2013-06-22 16:47:00,
2013-06-22 11:52:00,89.7,71.4,29.93,SW,217,1.3,3.5,55,0.00,CLR,,0.00,WeatherDisplay:10.37,2013-06-22 16:52:00,
2013-06-22 11:57:00,90.2,72.9,29.93,ENE,73,0.2,1.2,57,0.00,CLR,,0.00,WeatherDisplay:10.37,2013-06-22 16:57:00,
2013-06-22 12:02:00,90.6,71.7,29.93,SSE,158,1.5,2.3,54,0.00,CLR,,0.00,WeatherDisplay:10.37,2013-06-22 17:02:00,
2013-06-22 12:07:00,90.9,72.5,29.93,SW,233,1.3,2.3,55,0.00,CLR,,0.00,WeatherDisplay:10.37,2013-06-22 17:07:00,
2013-06-22 12:12:00,91.0,72.6,29.93,SE,137,1.1,3.5,55,0.00,CLR,,0.00,WeatherDisplay:10.37,2013-06-22 17:12:00,
2013-06-22 12:17:00,90.8,70.7,29.93,NE,52,2.9,3.5,52,0.00,CLR,,0.00,WeatherDisplay:10.37,2013-06-22 17:17:00,
2013-06-22 12:22:00,90.7,71.2,29.93,SW,234,1.4,2.0,53,0.00,CLR,,0.00,WeatherDisplay:10.37,2013-06-22 17:22:00,
2013-06-22 12:27:00,90.9,71.4,29.93,South,182,1.1,3.5,53,0.00,CLR,,0.00,WeatherDisplay:10.37,2013-06-22 17:27:00,
2013-06-22 12:32:00,91.2,71.7,29.93,ESE,111,0.6,1.2,53,0.00,CLR,,0.00,WeatherDisplay:10.37,2013-06-22 17:32:00,
2013-06-22 12:37:00,91.4,71.3,29.93,ESE,115,1.3,3.5,52,0.00,CLR,,0.00,WeatherDisplay:10.37,2013-06-22 17:37:00,
2013-06-22 12:42:00,91.7,72.7,29.93,SW,221,1.0,6.0,54,0.00,CLR,,0.00,WeatherDisplay:10.37,2013-06-22 17:42:00,
2013-06-22 12:47:00,91.6,72.0,29.93,SW,219,1.9,5.0,53,0.00,CLR,,0.00,WeatherDisplay:10.37,2013-06-22 17:47:00,
2013-06-22 12:53:00,91.6,72.0,29.93,ESE,118,0.6,3.5,53,0.00,CLR,,0.00,WeatherDisplay:10.37,2013-06-22 17:53:00,
2013-06-22 12:58:00,91.3,71.8,29.93,SW,219,1.3,3.5,53,0.00,CLR,,0.00,WeatherDisplay:10.37,2013-06-22 17:58:00,
2013-06-22 13:03:00,91.0,72.6,29.92,ESE,110,1.2,3.0,55,0.00,CLR,,0.00,WeatherDisplay:10.37,2013-06-22 18:03:00,
2013-06-22 13:08:00,91.3,72.3,29.92,SE,133,2.3,3.5,54,0.00,CLR,,0.00,WeatherDisplay:10.37,2013-06-22 18:08:00,
2013-06-22 13:13:00,91.2,72.2,29.91,SE,124,2.0,3.5,54,0.00,CLR,,0.00,WeatherDisplay:10.37,2013-06-22 18:13:00,
2013-06-22 13:18:00,91.1,73.2,29.91,South,169,1.0,2.3,56,0.00,CLR,,0.00,WeatherDisplay:10.37,2013-06-22 18:18:00,
2013-06-22 13:23:00,91.4,73.0,29.91,SSW,207,1.8,3.5,55,0.00,CLR,,0.00,WeatherDisplay:10.37,2013-06-22 18:23:00,
2013-06-22 13:28:00,91.4,71.3,29.91,ESE,119,2.3,3.5,52,0.00,CLR,,0.00,WeatherDisplay:10.37,2013-06-22 18:28:00,
2013-06-22 13:33:00,91.2,72.8,29.91,East,99,0.6,2.3,55,0.00,CLR,,0.00,WeatherDisplay:10.37,2013-06-22 18:33:00,
2013-06-22 13:38:00,91.6,72.6,29.92,East,84,1.4,3.5,54,0.00,CLR,,0.00,WeatherDisplay:10.37,2013-06-22 18:38:00,
2013-06-22 13:43:00,91.6,72.0,29.91,SSE,153,1.1,4.6,53,0.00,CLR,,0.00,WeatherDisplay:10.37,2013-06-22 18:43:00,
2013-06-22 13:48:00,91.2,71.1,29.91,West,270,2.9,6.9,52,0.00,CLR,,0.00,WeatherDisplay:10.37,2013-06-22 18:48:00,
2013-06-22 13:53:00,90.9,71.4,29.91,SW,227,1.2,3.5,53,0.00,CLR,,0.00,WeatherDisplay:10.37,2013-06-22 18:53:00,
2013-06-22 13:58:00,91.0,71.5,29.91,SE,142,0.6,3.5,53,0.00,CLR,,0.00,WeatherDisplay:10.37,2013-06-22 18:58:00,
2013-06-22 14:03:00,91.5,72.0,29.91,SSE,165,2.5,4.6,53,0.00,FEW,,0.00,WeatherDisplay:10.37,2013-06-22 19:03:00,
2013-06-22 14:08:00,91.2,71.1,29.91,East,89,3.6,3.6,52,0.00,FEW,,0.00,WeatherDisplay:10.37,2013-06-22 19:08:00,
2013-06-22 14:13:00,91.4,71.3,29.90,WSW,245,1.2,3.0,52,0.00,FEW,,0.00,WeatherDisplay:10.37,2013-06-22 19:13:00,
2013-06-22 14:18:00,91.7,71.0,29.90,SSW,213,2.2,3.5,51,0.00,FEW,,0.00,WeatherDisplay:10.37,2013-06-22 19:18:00,
2013-06-22 14:23:00,91.5,70.8,29.90,South,180,3.1,3.5,51,0.00,FEW,,0.00,WeatherDisplay:10.37,2013-06-22 19:23:00,
2013-06-22 14:28:00,91.7,72.1,29.89,East,96,1.2,3.5,53,0.00,FEW,,0.00,WeatherDisplay:10.37,2013-06-22 19:28:00,
2013-06-22 14:33:00,91.9,71.2,29.89,ESE,110,2.2,3.5,51,0.00,FEW,,0.00,WeatherDisplay:10.37,2013-06-22 19:33:00,
2013-06-22 14:38:00,92.0,70.7,29.88,SSE,150,1.3,2.3,50,0.00,FEW,,0.00,WeatherDisplay:10.37,2013-06-22 19:38:00,
2013-06-22 14:43:00,91.4,70.7,29.88,SSE,150,1.2,3.5,51,0.00,FEW,,0.00,WeatherDisplay:10.37,2013-06-22 19:43:00,
2013-06-22 14:48:00,91.3,71.2,29.87,ESE,115,2.0,5.8,52,0.00,FEW,,0.00,WeatherDisplay:10.37,2013-06-22 19:48:00,
2013-06-22 14:53:00,91.5,70.2,29.87,SE,143,3.1,5.8,50,0.00,FEW,,0.00,WeatherDisplay:10.37,2013-06-22 19:53:00,
2013-06-22 14:58:00,91.6,70.9,29.86,WSW,240,1.1,3.5,51,0.00,FEW,,0.00,WeatherDisplay:10.37,2013-06-22 19:58:00,
2013-06-22 15:03:00,91.7,69.8,29.86,WSW,245,2.2,5.8,49,0.00,CLR,,0.00,WeatherDisplay:10.37,2013-06-22 20:03:00,
2013-06-22 15:08:00,91.8,69.3,29.85,ESE,109,3.9,9.2,48,0.00,CLR,,0.00,WeatherDisplay:10.37,2013-06-22 20:08:00,
2013-06-22 15:13:00,91.8,69.9,29.84,SSW,205,3.5,8.1,49,0.00,CLR,,0.00,WeatherDisplay:10.37,2013-06-22 20:13:00,
2013-06-22 15:18:00,91.8,68.7,29.83,South,176,3.1,4.6,47,0.00,CLR,,0.00,WeatherDisplay:10.37,2013-06-22 20:18:00,
2013-06-22 15:23:00,91.9,70.0,29.82,East,92,3.5,9.2,49,0.00,CLR,,0.00,WeatherDisplay:10.37,2013-06-22 20:23:00,
2013-06-22 15:28:00,91.6,70.9,29.82,WSW,252,2.7,4.6,51,0.00,CLR,,0.00,WeatherDisplay:10.37,2013-06-22 20:28:00,
2013-06-22 15:33:00,91.6,69.7,29.83,SSW,195,1.3,5.8,49,0.00,CLR,,0.00,WeatherDisplay:10.37,2013-06-22 20:33:00,
2013-06-22 15:38:00,91.3,68.2,29.83,SSE,147,1.2,6.9,47,0.00,CLR,,0.00,WeatherDisplay:10.37,2013-06-22 20:38:00,
2013-06-22 15:43:00,91.0,66.7,29.83,ENE,58,2.8,4.6,45,0.00,CLR,,0.00,WeatherDisplay:10.37,2013-06-22 20:43:00,
2013-06-22 15:48:00,90.6,67.6,29.83,SE,137,2.2,5.8,47,0.00,CLR,,0.00,WeatherDisplay:10.37,2013-06-22 20:48:00,
2013-06-22 15:53:00,90.3,68.5,29.83,SSW,206,0.9,3.5,49,0.00,CLR,,0.00,WeatherDisplay:10.37,2013-06-22 20:53:00,
2013-06-22 15:58:00,90.1,69.0,29.83,SSE,155,4.5,5.8,50,0.00,CLR,,0.00,WeatherDisplay:10.37,2013-06-22 20:58:00,
2013-06-22 16:03:00,89.6,68.5,29.83,ESE,114,3.4,6.9,50,0.00,-RA,,0.00,WeatherDisplay:10.37,2013-06-22 21:03:00,
2013-06-22 16:08:00,89.2,68.1,29.83,NE,38,2.2,3.5,50,0.00,-RA,,0.00,WeatherDisplay:10.37,2013-06-22 21:08:00,
2013-06-22 16:13:00,89.0,69.1,29.82,ENE,68,1.4,3.0,52,0.00,-RA,,0.00,WeatherDisplay:10.37,2013-06-22 21:13:00,
2013-06-22 16:18:00,89.0,69.1,29.82,West,262,1.9,3.5,52,0.00,-RA,,0.00,WeatherDisplay:10.37,2013-06-22 21:18:00,
2013-06-22 16:23:00,88.9,67.9,29.82,SSE,159,3.0,6.9,50,0.00,-RA,,0.00,WeatherDisplay:10.37,2013-06-22 21:23:00,
2013-06-22 16:28:00,88.9,67.3,29.82,SSW,197,3.2,3.5,49,0.00,-RA,,0.00,WeatherDisplay:10.37,2013-06-22 21:28:00,
2013-06-22 16:33:00,89.0,67.9,29.81,WSW,243,1.8,5.0,50,0.00,-RA,,0.00,WeatherDisplay:10.37,2013-06-22 21:33:00,
2013-06-22 16:38:00,89.0,67.4,29.81,ESE,102,4.1,11.5,49,0.00,-RA,,0.00,WeatherDisplay:10.37,2013-06-22 21:38:00,
2013-06-22 16:43:00,88.9,67.9,29.81,SE,132,1.1,2.3,50,0.00,-RA,,0.00,WeatherDisplay:10.37,2013-06-22 21:43:00,
2013-06-22 16:48:00,88.8,68.9,29.81,SSW,206,0.9,3.5,52,0.00,-RA,,0.00,WeatherDisplay:10.37,2013-06-22 21:48:00,
2013-06-22 16:53:00,88.9,69.6,29.81,SSW,207,0.3,2.0,53,0.00,-RA,,0.00,WeatherDisplay:10.37,2013-06-22 21:53:00,
2013-06-22 16:58:00,88.8,69.5,29.80,ESE,108,1.9,4.6,53,0.00,-RA,,0.00,WeatherDisplay:10.37,2013-06-22 21:58:00,
2013-06-22 17:03:00,88.5,68.1,29.81,SE,144,1.4,3.5,51,0.00,-RA,,0.00,WeatherDisplay:10.37,2013-06-22 22:03:00,
2013-06-22 17:08:00,88.3,68.4,29.80,WSW,255,1.0,2.3,52,0.00,-RA,,0.00,WeatherDisplay:10.37,2013-06-22 22:08:00,
2013-06-22 17:13:00,88.0,68.7,29.80,ESE,119,1.5,3.5,53,0.00,-RA,,0.00,WeatherDisplay:10.37,2013-06-22 22:13:00,
2013-06-22 17:18:00,87.7,67.9,29.80,SE,143,2.0,9.2,52,0.00,-RA,,0.00,WeatherDisplay:10.37,2013-06-22 22:18:00,
2013-06-22 17:23:00,87.6,68.4,29.80,WSW,251,2.3,3.5,53,0.00,-RA,,0.00,WeatherDisplay:10.37,2013-06-22 22:23:00,
2013-06-22 17:28:00,87.6,69.4,29.80,WSW,240,2.4,3.5,55,0.00,-RA,,0.00,WeatherDisplay:10.37,2013-06-22 22:28:00,
2013-06-22 17:33:00,87.6,68.4,29.80,South,188,2.5,4.6,53,0.00,-RA,,0.00,WeatherDisplay:10.37,2013-06-22 22:33:00,
2013-06-22 17:38:00,87.6,68.9,29.80,WSW,237,3.0,3.5,54,0.00,-RA,,0.00,WeatherDisplay:10.37,2013-06-22 22:38:00,
2013-06-22 17:43:00,87.5,68.8,29.80,SE,138,2.8,4.6,54,0.00,-RA,,0.00,WeatherDisplay:10.37,2013-06-22 22:43:00,
2013-06-22 17:48:00,87.4,69.3,29.79,WSW,240,3.1,6.9,55,0.00,-RA,,0.00,WeatherDisplay:10.37,2013-06-22 22:48:00,
2013-06-22 17:53:00,87.4,69.3,29.79,SSE,148,3.0,4.6,55,0.00,-RA,,0.00,WeatherDisplay:10.37,2013-06-22 22:53:00,
2013-06-22 17:58:00,87.6,69.4,29.79,West,261,4.0,6.9,55,0.00,-RA,,0.00,WeatherDisplay:10.37,2013-06-22 22:58:00,
2013-06-22 18:03:00,87.6,69.4,29.79,ESE,115,3.0,6.0,55,0.00,CLR,,0.00,WeatherDisplay:10.37,2013-06-22 23:03:00,
2013-06-22 18:08:00,87.5,70.4,29.79,SE,143,1.9,8.0,57,0.00,CLR,,0.00,WeatherDisplay:10.37,2013-06-22 23:08:00,
2013-06-22 18:13:00,87.5,70.4,29.79,ESE,119,2.2,4.6,57,0.00,CLR,,0.00,WeatherDisplay:10.37,2013-06-22 23:13:00,
2013-06-22 18:18:00,87.4,70.3,29.79,SE,139,2.2,4.6,57,0.00,CLR,,0.00,WeatherDisplay:10.37,2013-06-22 23:18:00,
2013-06-22 18:23:00,87.4,70.3,29.79,ESE,113,3.6,6.9,57,0.00,CLR,,0.00,WeatherDisplay:10.37,2013-06-22 23:23:00,
2013-06-22 18:28:00,87.3,70.2,29.79,SW,231,2.5,6.0,57,0.00,CLR,,0.00,WeatherDisplay:10.37,2013-06-22 23:28:00,
2013-06-22 18:33:00,87.2,70.6,29.79,SSW,203,1.1,4.0,58,0.00,CLR,,0.00,WeatherDisplay:10.37,2013-06-22 23:33:00,
2013-06-22 18:38:00,87.2,70.6,29.79,SE,129,2.3,4.6,58,0.00,CLR,,0.00,WeatherDisplay:10.37,2013-06-22 23:38:00,
2013-06-22 18:43:00,87.2,71.1,29.79,SW,234,1.4,3.5,59,0.00,CLR,,0.00,WeatherDisplay:10.37,2013-06-22 23:43:00,
2013-06-22 18:48:00,87.2,70.6,29.79,SSE,148,2.4,6.9,58,0.00,CLR,,0.00,WeatherDisplay:10.37,2013-06-22 23:48:00,
2013-06-22 18:53:00,87.1,71.0,29.79,East,91,2.6,8.1,59,0.00,CLR,,0.00,WeatherDisplay:10.37,2013-06-22 23:53:00,
2013-06-22 18:58:00,87.0,70.9,29.79,SE,126,1.1,3.5,59,0.00,CLR,,0.00,WeatherDisplay:10.37,2013-06-22 23:58:00,
2013-06-22 19:03:00,87.0,71.4,29.79,SW,225,1.5,4.0,60,0.00,-RA,,0.00,WeatherDisplay:10.37,2013-06-23 00:03:00,
2013-06-22 19:08:00,87.0,70.4,29.79,SE,133,1.8,3.5,58,0.00,-RA,,0.00,WeatherDisplay:10.37,2013-06-23 00:08:00,
2013-06-22 19:13:00,86.8,69.7,29.80,SE,142,1.3,2.3,57,0.00,-RA,,0.00,WeatherDisplay:10.37,2013-06-23 00:13:00,
2013-06-22 19:18:00,86.8,69.7,29.80,SSW,195,1.5,3.5,57,0.00,-RA,,0.00,WeatherDisplay:10.37,2013-06-23 00:18:00,
2013-06-22 19:23:00,86.6,68.0,29.80,SW,235,3.6,12.7,54,0.00,-RA,,0.00,WeatherDisplay:10.37,2013-06-23 00:23:00,
2013-06-22 19:28:00,86.5,67.9,29.80,SW,214,2.0,3.5,54,0.00,-RA,,0.00,WeatherDisplay:10.37,2013-06-23 00:28:00,
2013-06-22 19:33:00,86.4,67.8,29.80,East,83,1.0,3.5,54,0.00,-RA,,0.00,WeatherDisplay:10.37,2013-06-23 00:33:00,
2013-06-22 19:38:00,86.2,67.6,29.80,SSW,200,1.7,2.3,54,0.00,-RA,,0.00,WeatherDisplay:10.37,2013-06-23 00:38:00,
2013-06-22 19:43:00,86.1,67.5,29.80,ESE,123,0.6,1.2,54,0.00,-RA,,0.00,WeatherDisplay:10.37,2013-06-23 00:43:00,
2013-06-22 19:48:00,85.9,67.9,29.81,SSE,158,1.2,2.3,55,0.00,-RA,,0.00,WeatherDisplay:10.37,2013-06-23 00:48:00,
2013-06-22 19:53:00,85.7,68.2,29.81,SSE,157,0.0,0.0,56,0.00,-RA,,0.00,WeatherDisplay:10.37,2013-06-23 00:53:00,
2013-06-22 19:58:00,85.5,68.5,29.81,ESE,108,0.6,2.3,57,0.00,-RA,,0.00,WeatherDisplay:10.37,2013-06-23 00:58:00,
2013-06-22 20:03:00,85.4,68.9,29.81,SW,225,0.4,3.5,58,0.00,-RA,,0.00,WeatherDisplay:10.37,2013-06-23 01:03:00,
2013-06-22 20:08:00,85.2,69.3,29.81,ESE,110,0.6,1.2,59,0.00,-RA,,0.00,WeatherDisplay:10.37,2013-06-23 01:08:00,
2013-06-22 20:13:00,85.1,69.7,29.81,ESE,119,0.8,2.3,60,0.00,-RA,,0.00,WeatherDisplay:10.37,2013-06-23 01:13:00,
2013-06-22 20:18:00,85.0,69.6,29.81,South,174,0.3,1.2,60,0.00,-RA,,0.00,WeatherDisplay:10.37,2013-06-23 01:18:00,
2013-06-22 20:23:00,84.7,69.8,29.81,South,175,0.0,0.0,61,0.00,-RA,,0.00,WeatherDisplay:10.37,2013-06-23 01:23:00,
2013-06-22 20:28:00,84.4,69.5,29.81,SE,141,0.0,0.0,61,0.00,-RA,,0.00,WeatherDisplay:10.37,2013-06-23 01:28:00,
2013-06-22 20:33:00,84.1,68.7,29.81,SE,135,0.0,0.0,60,0.00,-RA,,0.00,WeatherDisplay:10.37,2013-06-23 01:33:00,
2013-06-22 20:38:00,83.9,69.0,29.81,SE,129,0.2,1.2,61,0.00,-RA,,0.00,WeatherDisplay:10.37,2013-06-23 01:38:00,
2013-06-22 20:43:00,83.6,69.2,29.81,SE,124,0.2,1.2,62,0.00,-RA,,0.00,WeatherDisplay:10.37,2013-06-23 01:43:00,
2013-06-22 20:48:00,83.5,69.6,29.82,SE,134,0.1,1.2,63,0.00,-RA,,0.00,WeatherDisplay:10.37,2013-06-23 01:48:00,
2013-06-22 20:53:00,83.4,69.5,29.82,SE,124,0.0,2.3,63,0.00,-RA,,0.00,WeatherDisplay:10.37,2013-06-23 01:53:00,
2013-06-22 20:58:00,83.2,69.8,29.82,SE,124,0.0,0.0,64,0.00,-RA,,0.00,WeatherDisplay:10.37,2013-06-23 01:58:00,
2013-06-22 21:03:00,83.0,70.0,29.82,SE,124,0.0,0.0,65,0.00,CLR,,0.00,WeatherDisplay:10.37,2013-06-23 02:03:00,
2013-06-22 21:08:00,82.8,69.8,29.82,SE,130,0.8,2.3,65,0.00,CLR,,0.00,WeatherDisplay:10.37,2013-06-23 02:08:00,
2013-06-22 21:13:00,82.7,69.7,29.82,ESE,122,0.1,1.2,65,0.00,CLR,,0.00,WeatherDisplay:10.37,2013-06-23 02:13:00,
2013-06-22 21:18:00,82.5,70.0,29.82,SSE,149,0.0,0.0,66,0.00,CLR,,0.00,WeatherDisplay:10.37,2013-06-23 02:18:00,
2013-06-22 21:23:00,82.4,69.9,29.82,ESE,123,0.0,2.3,66,0.00,CLR,,0.00,WeatherDisplay:10.37,2013-06-23 02:23:00,
2013-06-22 21:28:00,82.4,69.9,29.82,ESE,123,0.0,1.2,66,0.00,CLR,,0.00,WeatherDisplay:10.37,2013-06-23 02:28:00,
2013-06-22 21:33:00,82.3,69.8,29.82,SE,129,0.1,1.2,66,0.00,CLR,,0.00,WeatherDisplay:10.37,2013-06-23 02:33:00,
2013-06-22 21:38:00,82.3,70.2,29.83,SSE,150,0.1,3.5,67,0.00,CLR,,0.00,WeatherDisplay:10.37,2013-06-23 02:38:00,
2013-06-22 21:43:00,82.1,70.1,29.83,ESE,118,0.1,2.3,67,0.00,CLR,,0.00,WeatherDisplay:10.37,2013-06-23 02:43:00,
2013-06-22 21:48:00,82.1,70.1,29.83,SE,125,0.9,3.5,67,0.00,CLR,,0.00,WeatherDisplay:10.37,2013-06-23 02:48:00,
2013-06-22 21:53:00,82.0,70.0,29.83,SE,131,0.0,1.2,67,0.00,CLR,,0.00,WeatherDisplay:10.37,2013-06-23 02:53:00,
2013-06-22 21:58:00,81.8,70.2,29.84,ESE,120,0.1,1.2,68,0.00,CLR,,0.00,WeatherDisplay:10.37,2013-06-23 02:58:00,
2013-06-22 22:03:00,81.6,70.0,29.84,ESE,105,0.0,0.0,68,0.00,CLR,,0.00,WeatherDisplay:10.37,2013-06-23 03:03:00,
2013-06-22 22:08:00,81.5,69.9,29.84,ESE,119,0.0,1.2,68,0.00,CLR,,0.00,WeatherDisplay:10.37,2013-06-23 03:08:00,
2013-06-22 22:13:00,81.4,69.8,29.84,SE,136,0.2,1.2,68,0.00,CLR,,0.00,WeatherDisplay:10.37,2013-06-23 03:13:00,
2013-06-22 22:18:00,81.2,70.1,29.84,SE,136,0.0,0.0,69,0.00,CLR,,0.00,WeatherDisplay:10.37,2013-06-23 03:18:00,
2013-06-22 22:23:00,81.2,70.1,29.85,ESE,122,0.0,0.0,69,0.00,CLR,,0.00,WeatherDisplay:10.37,2013-06-23 03:23:00,
2013-06-22 22:28:00,81.0,69.9,29.84,ESE,113,0.5,1.2,69,0.00,CLR,,0.00,WeatherDisplay:10.37,2013-06-23 03:28:00,
2013-06-22 22:34:00,81.0,69.9,29.84,ESE,115,0.4,2.3,69,0.00,CLR,,0.00,WeatherDisplay:10.37,2013-06-23 03:34:00,
2013-06-22 22:39:00,81.0,70.3,29.85,ENE,75,1.5,3.5,70,0.00,CLR,,0.00,WeatherDisplay:10.37,2013-06-23 03:39:00,
2013-06-22 22:44:00,81.0,70.3,29.85,ESE,117,0.1,1.2,70,0.00,CLR,,0.00,WeatherDisplay:10.37,2013-06-23 03:44:00,
2013-06-22 22:49:00,80.9,70.2,29.85,SE,124,0.4,1.0,70,0.00,CLR,,0.00,WeatherDisplay:10.37,2013-06-23 03:49:00,
2013-06-22 22:54:00,80.7,70.0,29.85,SE,124,0.0,0.0,70,0.00,CLR,,0.00,WeatherDisplay:10.37,2013-06-23 03:54:00,
2013-06-22 22:59:00,80.5,69.8,29.85,SE,131,0.3,1.2,70,0.00,CLR,,0.00,WeatherDisplay:10.37,2013-06-23 03:59:00,
2013-06-22 23:01:00,80.5,69.8,29.85,SE,139,1.1,4.6,70,0.00,CLR,,0.00,WeatherDisplay:10.37,2013-06-23 04:01:00,
2013-06-22 23:06:00,80.5,69.8,29.85,ESE,120,0.1,1.2,70,0.00,CLR,,0.00,WeatherDisplay:10.37,2013-06-23 04:06:00,
2013-06-22 23:11:00,80.3,70.0,29.85,ESE,122,0.4,2.0,71,0.00,CLR,,0.00,WeatherDisplay:10.37,2013-06-23 04:11:00,
2013-06-22 23:16:00,80.3,70.0,29.85,SSE,161,0.6,2.3,71,0.00,CLR,,0.00,WeatherDisplay:10.37,2013-06-23 04:16:00,
2013-06-22 23:21:00,80.2,69.5,29.85,SE,139,1.2,3.5,70,0.00,CLR,,0.00,WeatherDisplay:10.37,2013-06-23 04:21:00,
2013-06-22 23:26:00,80.4,69.7,29.85,East,89,0.4,1.2,70,0.00,CLR,,0.00,WeatherDisplay:10.37,2013-06-23 04:26:00,
2013-06-22 23:31:00,80.3,69.6,29.85,East,98,0.2,0.0,70,0.00,CLR,,0.00,WeatherDisplay:10.37,2013-06-23 04:31:00,
2013-06-22 23:37:00,80.2,69.5,29.85,SE,128,0.3,1.2,70,0.00,CLR,,0.00,WeatherDisplay:10.37,2013-06-23 04:37:00,
2013-06-22 23:42:00,80.2,69.5,29.85,ESE,122,0.3,1.2,70,0.00,CLR,,0.00,WeatherDisplay:10.37,2013-06-23 04:42:00,
2013-06-22 23:47:00,80.1,69.4,29.85,ESE,116,0.1,1.2,70,0.00,CLR,,0.00,WeatherDisplay:10.37,2013-06-23 04:47:00,
2013-06-22 23:52:00,80.1,69.4,29.86,East,92,0.9,2.0,70,0.00,CLR,,0.00,WeatherDisplay:10.37,2013-06-23 04:52:00,
2013-06-22 23:57:00,80.0,69.3,29.86,East,89,1.3,3.5,70,0.00,CLR,,0.00,WeatherDisplay:10.37,2013-06-23 04:57:00,